Showing default

SES 14, 43175

Orbit data source: Space-Track

SES 14, 43175 is a payload satellite owned by SES (LU) in GEO that was launched on Thu, 25 Jan 2018 UTC via an ARIANE 5ECA launch vehicle from the French Guiana (FRGUI). Payload-class satellites include a variety of spacecraft equipped with specific instruments for various scientific and technological missions. These include communications satellites like Starlink; space stations such as the ISS; scientific satellites like the Hubble; Earth observation satellites from companies like Planet Labs, Umbra, and HawkEye 360; GPS; miniature CubeSats for education and research; and military/defense satellites.

Loading next visibility...
Identifier
43175, 2018-012B
Orbit
GEO
Last TLE update
8 hours ago
Origin
Manufacturer
Airbus/Toulouse
Mission
Operational Commercial Communications
Bus & Motor
EUROSTAR 3000E, EOR
Mass
4,423 kg wet, ~2,800 kg dry
Launch date (UTC)
2018-01-25 (7 years ago)
Launch vehicle
ARIANE 5ECA
Launch site
French Guiana (FRGUI)
Object type
Payload
Rocket body
Debris
Shape & HBR
Box + 2 Pan, 39.3 m
Radar Cross Section
49.877 m², Large (>1 m²)

Expand to show TLE details & history

TLE from 8 hours ago
0 SES 14
1 43175U 18012B   25128.87278331 -.00000273  00000-0  00000-0 0  9992
2 43175   0.0392  63.9895 0001025 338.1064  91.5494  1.00271826  2976
Epoch: 2025-05-08T20:56Z
Definitive object data (Epoch: 2025-05-08T20:56:48.477Z)
Latitude
-0.00248°
Longitude
-47.48484°
Altitude
35,786.192 km
Speed
3.075 km/s
True Right ascension
08h 54m 37s
True Declination
0° 00' 09"
Sunlit
Object was in daylight at TLE epoch
Visualization TLE readout
Latitude
-0.01424°
Longitude
77.04873°
Altitude
35,789.623 km
Speed
3.074 km/s
Apparent Right ascension
17h 36m 38s
Apparent Declination
-5° 51' 39"
Sunlit
Object is in daylight
Visualization observer readout
Local Sidereal Time
13:22:17
Azimuth
112.128° ESE
Elevation
15.896°
Doppler factor
1
Orbital elements
Apogee altitude
35,791.976 km
Perigee altitude
35,783.332 km
Semi-major axis
42,165.791 km
Eccentricity
0.0001025
Inclination
0.0392°
RAAN
63.9895°
Arg. of periapsis
338.1064°
True anomaly
91.56114°
Mean anomaly
91.5494°
Eccentric anomaly
91.55527°
Mean motion
0.25067 °/min
BSTAR
Unknown
Orbital period
1436.15 mins
Loading historical data...
43175 neighbors
Loading maneuver chart data...
Loading SW <> Apogee altitude chart data...
Loading historical data...
Loading historical data...
Loading historical data...
Loading historical data...
Loading historical data...
Loading historical data...
Loading historical data...
Other satellites on launch #12 in the year 2018 (2018-01-25 UTC)

SES 14 Visibility forecast

Observer location: undefined°, undefined°

Span
Click to sort rows by Start time (UTC) header in descending order
Start Az.
Max El. time (UTC)
Max El. Az.
Max El.
End time (UTC)
End Az.
1440 mins2025-05-09 05:13:39.666Z112.143° ESE2025-05-09 13:55:39.666Z112.115° ESE15.329°2025-05-10 05:13:39.666Z112.149° ESE
|